DW6276 Weather Reports


Display with metric or nautical units.
time (UTC)temp
F
wind
direction
speed
MPH
gust
MPH
rain 1hr
in
rain 24hr
in
rain mn
in
humidity
%
barometer
mb
20260906220516 73 135 2.0 4.0 0.00 0.00 0.00 87 1017.2
20260906215516 73 135 2.0 4.0 0.00 0.00 0.00 86 1017.2
20260906214516 73 180 3.0 4.0 0.00 0.00 0.00 86 1017.4
20260906213516 73 180 2.0 4.0 0.00 0.00 0.00 86 1017.5
20260906212516 73 135 2.0 3.0 0.00 0.00 0.00 86 1017.6
20260906211516 73 90 1.0 2.0 0.00 0.00 0.00 86 1017.5
20260906210516 73 113 2.0 4.0 0.00 0.00 0.00 85 1017.4
20260906205516 74 0.0 2.0 0.00 0.00 0.00 85 1017.7
20260906204516 74 0.0 2.0 0.00 0.00 0.00 86 1018.2
20260906203516 73 68 1.0 3.0 0.00 0.00 0.00 85 1018.2
20260906202516 73 113 3.0 6.0 0.00 0.00 0.00 85 1018.0
20260906201516 73 113 4.0 7.0 0.00 0.00 0.00 85 1017.9
20260906200516 74 135 3.0 6.0 0.00 0.00 0.00 86 1018.2
20260906195536 74 158 6.0 10.0 0.00 0.00 0.00 85 1018.5
20260906194556 74 180 4.0 7.0 0.00 0.00 0.00 85 1018.6
20260906193516 74 158 4.0 7.0 0.00 0.00 0.00 85 1018.6
20260906192516 74 180 5.0 9.0 0.00 0.00 0.00 85 1018.9
20260906191516 74 180 5.0 10.0 0.00 0.00 0.00 85 1018.9
20260906190516 74 180 7.0 11.0 0.00 0.00 0.00 85 1018.9
20260906185616 74 158 5.0 8.0 0.00 0.00 0.00 86 1018.8
20260906184516 74 158 5.0 8.0 0.00 0.00 0.00 85 1018.7
20260906183516 74 135 5.0 9.0 0.00 0.00 0.00 84 1018.2
20260906182515 74 158 4.0 7.0 0.00 0.00 0.00 84 1018.2
20260906181516 74 180 5.0 7.0 0.00 0.00 0.00 84 1018.4
20260906180515 74 180 3.0 7.0 0.00 0.00 0.00 85 1018.5
20260906175516 74 180 5.0 9.0 0.00 0.00 0.00 84 1018.7
20260906174516 75 158 6.0 9.0 0.00 0.00 0.00 84 1018.7
20260906173535 75 158 5.0 7.0 0.00 0.00 0.00 85 1018.7
20260906172515 75 158 5.0 8.0 0.00 0.00 0.00 84 1018.6
20260906171536 74 158 6.0 10.0 0.00 0.00 0.00 84 1018.6
20260906170515 75 113 6.0 12.0 0.00 0.00 0.00 83 1018.6
20260906165515 76 135 6.0 11.0 0.00 0.00 0.00 84 1018.8
20260906164515 75 135 8.0 12.0 0.00 0.00 0.00 84 1018.7
20260906163515 75 135 6.0 13.0 0.00 0.00 0.00 85 1018.9
20260906162515 74 135 5.0 8.0 0.00 0.00 0.00 86 1019.1
20260906161515 73 158 6.0 11.0 0.00 0.00 0.00 86 1019.2
20260906160515 73 158 5.0 8.0 0.00 0.00 0.00 87 1019.1
20260906155515 72 135 4.0 7.0 0.00 0.00 0.00 88 1019.1
20260906154515 72 135 5.0 8.0 0.00 0.00 0.00 88 1019.1
20260906153515 72 158 4.0 7.0 0.00 0.00 0.00 89 1018.8
20260906152515 72 135 5.0 7.0 0.00 0.00 0.00 88 1018.7
20260906151515 72 158 5.0 8.0 0.00 0.00 0.00 88 1018.8
20260906150515 72 158 5.0 8.0 0.00 0.00 0.00 89 1019.0
20260906145515 71 158 6.0 11.0 0.00 0.00 0.00 89 1019.0
20260906144515 71 158 4.0 7.0 0.00 0.00 0.00 89 1018.9
20260906143515 71 158 4.0 7.0 0.00 0.00 0.00 90 1018.7
20260906142515 71 158 4.0 9.0 0.00 0.00 0.00 90 1018.7
20260906141515 71 180 5.0 9.0 0.00 0.00 0.00 89 1018.7
20260906140535 71 158 6.0 10.0 0.00 0.00 0.00 89 1018.6
20260906135517 71 135 6.0 8.0 0.00 0.00 0.00 90 1018.7
20260906134517 71 135 6.0 9.0 0.00 0.00 0.00 90 1018.5
20260906133517 70 158 5.0 9.0 0.00 0.00 0.00 91 1018.3
20260906132517 70 180 4.0 8.0 0.00 0.00 0.00 91 1018.4
20260906131517 70 158 3.0 7.0 0.00 0.00 0.00 92 1018.5
20260906130517 69 0 2.0 5.0 0.00 0.00 0.00 92 1018.4
20260906125517 69 158 3.0 6.0 0.00 0.00 0.00 93 1018.3
20260906124517 68 135 3.0 7.0 0.00 0.00 0.00 93 1018.2
20260906123517 68 0 2.0 3.0 0.00 0.00 0.00 93 1018.2
20260906122517 67 135 2.0 3.0 0.00 0.00 0.00 93 1018.1
20260906121517 67 158 2.0 5.0 0.00 0.00 0.00 93 1018.0
20260906120517 67 135 1.0 3.0 0.00 0.00 0.00 94 1018.1
20260906115517 66 135 1.0 2.0 0.00 0.00 0.00 93 1017.9
20260906114517 66 135 1.0 1.0 0.00 0.00 0.00 93 1018.1
20260906113537 66 0.0 2.0 0.00 0.00 0.00 93 1018.2
20260906112517 66 0.0 1.0 0.00 0.00 0.00 93 1018.1
20260906111517 65 0.0 2.0 0.00 0.00 0.00 93 1017.9
20260906110537 66 0.0 0.0 0.00 0.00 0.00 93 1018.0
20260906105517 66 0.0 2.0 0.00 0.00 0.00 93 1017.8
20260906104517 66 113 1.0 2.0 0.00 0.00 0.00 93 1017.8
20260906103517 66 113 1.0 2.0 0.00 0.00 0.00 93 1017.9
20260906102517 66 0.0 1.0 0.00 0.00 0.00 93 1017.8
20260906101517 66 0.0 1.0 0.00 0.00 0.00 92 1017.9
20260906100517 66 0.0 2.0 0.00 0.00 0.00 92 1017.7
20260906095517 66 0.0 2.0 0.00 0.00 0.00 93 1017.7
20260906094517 66 0.0 1.0 0.00 0.00 0.00 92 1017.4
20260906093516 66 113 1.0 1.0 0.00 0.00 0.00 92 1017.3
20260906092517 66 0.0 1.0 0.00 0.00 0.00 92 1017.2
20260906091517 66 113 1.0 2.0 0.00 0.00 0.00 92 1017.0
20260906090517 67 113 1.0 1.0 0.00 0.00 0.00 92 1017.1
20260906085517 66 135 1.0 2.0 0.00 0.00 0.00 91 1017.1
20260906084517 67 0.0 1.0 0.00 0.00 0.00 90 1017.2
20260906083516 68 0.0 2.0 0.00 0.00 0.00 91 1017.2
20260906082516 68 0.0 2.0 0.00 0.00 0.00 91 1017.0
20260906081517 68 0.0 1.0 0.00 0.00 0.00 91 1016.8
20260906080517 69 0.0 2.0 0.00 0.00 0.00 91 1016.8
20260906075516 69 0 1.0 2.0 0.00 0.00 0.00 91 1016.8
20260906074517 69 113 2.0 4.0 0.00 0.00 0.00 91 1016.7
20260906073516 70 135 3.0 9.0 0.00 0.00 0.00 91 1016.7
20260906072537 70 135 3.0 5.0 0.00 0.00 0.00 91 1016.8
20260906071517 70 135 3.0 5.0 0.00 0.00 0.00 91 1016.9
20260906070517 70 135 2.0 5.0 0.00 0.00 0.00 91 1017.0
20260906065516 69 0 2.0 4.0 0.00 0.00 0.00 91 1017.2
20260906064516 70 0 1.0 3.0 0.00 0.00 0.00 91 1017.2
20260906063516 70 0 2.0 4.0 0.00 0.00 0.00 91 1017.3
20260906062556 70 0 2.0 4.0 0.00 0.00 0.00 91 1017.3
20260906061516 70 0 2.0 3.0 0.00 0.00 0.00 91 1017.1
20260906060516 70 0 3.0 4.0 0.00 0.00 0.00 91 1017.1
20260906055516 70 0 2.0 5.0 0.00 0.00 0.00 91 1017.2
20260906054516 71 135 3.0 4.0 0.00 0.00 0.00 91 1017.3
20260906053516 71 135 3.0 6.0 0.00 0.00 0.00 91 1017.4
20260906052516 71 113 2.0 4.0 0.00 0.00 0.00 90 1017.4
20260906051516 71 113 4.0 8.0 0.00 0.00 0.00 91 1017.4
20260906050516 72 113 3.0 5.0 0.00 0.00 0.00 90 1017.3
20260906045517 72 113 3.0 5.0 0.00 0.00 0.00 91 1017.3
20260906044517 72 113 3.0 7.0 0.00 0.00 0.00 91 1017.3
20260906043517 72 113 4.0 7.0 0.00 0.00 0.00 91 1017.2
20260906042537 72 113 3.0 8.0 0.00 0.00 0.00 91 1017.3
20260906041517 72 113 3.0 6.0 0.00 0.00 0.00 91 1017.3
20260906040517 72 113 4.0 7.0 0.00 0.00 0.00 91 1017.3
20260906035517 72 113 3.0 6.0 0.00 0.00 0.00 91 1017.3
20260906034537 72 90 3.0 5.0 0.00 0.00 0.00 91 1017.3
20260906033517 72 90 3.0 5.0 0.00 0.00 0.00 91 1017.3
20260906032517 72 113 1.0 2.0 0.00 0.00 0.00 91 1017.2
20260906031517 72 113 1.0 2.0 0.00 0.00 0.00 91 1017.3
20260906030517 72 113 1.0 2.0 0.00 0.00 0.00 91 1017.4
20260906025517 72 113 1.0 2.0 0.00 0.00 0.00 90 1017.4
20260906024517 73 0 1.0 1.0 0.00 0.00 0.00 90 1017.4
20260906023537 73 0.0 0.0 0.00 0.00 0.00 90 1017.4
20260906022557 73 0.0 2.0 0.00 0.00 0.00 90 1017.3
20260906021517 73 0.0 0.0 0.00 0.00 0.00 90 1017.1
20260906020517 73 0.0 1.0 0.00 0.00 0.00 90 1016.8
20260906015517 73 90 1.0 3.0 0.00 0.00 0.00 89 1016.6
20260906014516 74 0.0 2.0 0.00 0.00 0.00 89 1016.4
20260906013536 74 0.0 2.0 0.00 0.00 0.00 89 1016.1
20260906012536 74 0.0 2.0 0.00 0.00 0.00 88 1016.0
20260906011516 75 0.0 1.0 0.00 0.00 0.00 88 1016.0
20260906010516 75 0.0 2.0 0.00 0.00 0.00 87 1015.7
20260906005516 76 180 1.0 2.0 0.00 0.00 0.00 86 1015.7
20260906004516 76 180 2.0 3.0 0.00 0.00 0.00 85 1015.7
20260906003516 77 158 1.0 2.0 0.00 0.00 0.00 84 1015.7
20260906002516 78 135 2.0 3.0 0.00 0.00 0.00 84 1015.6
20260906001517 78 135 2.0 4.0 0.00 0.00 0.00 83 1015.5
20260906000516 78 135 1.0 4.0 0.00 0.00 0.00 83 1015.6
20260905235516 78 135 2.0 4.0 0.00 0.00 0.00 82 1015.6
20260905234517 79 135 3.0 7.0 0.00 0.00 0.00 81 1015.6
20260905233516 79 135 4.0 7.0 0.00 0.00 0.00 80 1015.6
20260905232516 80 158 4.0 6.0 0.00 0.00 0.00 80 1015.5
20260905231516 81 135 5.0 9.0 0.00 0.00 0.00 79 1015.4
20260905230516 81 135 4.0 7.0 0.00 0.00 0.00 80 1015.3
20260905225556 81 135 4.0 7.0 0.00 0.00 0.00 80 1015.2
20260905224516 81 158 4.0 6.0 0.00 0.00 0.00 80 1015.2
20260905223516 80 158 3.0 6.0 0.00 0.00 0.00 80 1014.8
20260905222516 81 113 4.0 8.0 0.00 0.00 0.00 79 1014.6
20260905221516 81 90 6.0 11.0 0.00 0.00 0.00 77 1014.5